• In Romania
  • List of Countries
  • For 7 days
  • Water Temperature
  • Satellite Maps
  • Weather Map
  • Weather Widgets
  • user-avatar
    Login

    Hourly Weather Solden

    Today, 26 March, Sunday

    Time Temperature Precipitation Wind Pressure Humidity
    00:00 -2°C° 0 mm 1 mps 579 mmHg 92%
    01:00 -3°C° 0 mm 1 mps 579 mmHg 93%
    02:00 -3°C° 0 mm 1 mps 578 mmHg 93%
    03:00 -3°C° 0 mm 1 mps 578 mmHg 93%
    04:00 -4°C° 0 mm 1 mps 578 mmHg 93%
    05:00 -4°C° 0 mm 1 mps 578 mmHg 92%
    06:00 -4°C° 0 mm 1 mps 578 mmHg 91%
    07:00 -2°C° 0 mm 1 mps 579 mmHg 88%
    08:00 0°C° 0 mm 1 mps 580 mmHg 84%
    09:00 +1°C° 0 mm 1 mps 581 mmHg 80%
    10:00 +3°C° 0 mm 1 mps 582 mmHg 76%
    11:00 +4°C° 0.1 mm 1 mps 582 mmHg 75%
    12:00 +4°C° 0.1 mm 1 mps 582 mmHg 74%
    13:00 +3°C° 0 mm 2 mps 582 mmHg 73%
    14:00 +3°C° 0.3 mm 2 mps 582 mmHg 75%
    15:00 +2°C° 0.3 mm 2 mps 582 mmHg 77%
    16:00 +2°C° 0.3 mm 2 mps 582 mmHg 79%
    17:00 +1°C° 0.5 mm 2 mps 582 mmHg 83%
    18:00 0°C° 0.5 mm 1 mps 582 mmHg 88%
    19:00 -1°C° 0.5 mm 1 mps 581 mmHg 93%
    20:00 -3°C° 0.2 mm 1 mps 581 mmHg 94%
    21:00 -4°C° 0.2 mm 1 mps 581 mmHg 95%
    22:00 -6°C° 0.2 mm 1 mps 581 mmHg 96%
    23:00 -4°C° 0 mm 1 mps 582 mmHg 95%

    Tomorrow, 27 March, Monday

    Time Temperature Precipitation Wind Pressure Humidity
    00:00 -4°C° 0 mm 1 mps 582 mmHg 95%
    01:00 -4°C° 0 mm 1 mps 582 mmHg 94%
    02:00 -4°C° 0 mm 1 mps 582 mmHg 95%
    03:00 -4°C° 0 mm 1 mps 582 mmHg 95%
    04:00 -4°C° 0 mm 1 mps 582 mmHg 95%
    05:00 -4°C° 0 mm 1 mps 583 mmHg 93%
    06:00 -4°C° 0 mm 1 mps 583 mmHg 92%
    07:00 -3°C° 0 mm 1 mps 583 mmHg 91%
    08:00 -1°C° 0 mm 1 mps 584 mmHg 85%
    09:00 +1°C° 0 mm 1 mps 585 mmHg 78%
    10:00 +3°C° 0 mm 1 mps 585 mmHg 72%
    11:00 +3°C° 0 mm 1 mps 586 mmHg 70%
    12:00 +4°C° 0 mm 1 mps 586 mmHg 68%
    13:00 +5°C° 0 mm 1 mps 586 mmHg 66%
    14:00 +5°C° 0 mm 1 mps 586 mmHg 68%
    15:00 +5°C° 0 mm 1 mps 586 mmHg 69%
    16:00 +4°C° 0 mm 1 mps 585 mmHg 71%
    17:00 +1°C° 0 mm 1 mps 584 mmHg 79%
    18:00 -1°C° 0 mm 1 mps 582 mmHg 86%
    19:00 -4°C° 0 mm 1 mps 581 mmHg 93%
    20:00 -5°C° 0 mm 0 mps 581 mmHg 94%
    21:00 -6°C° 0 mm 0 mps 581 mmHg 95%
    22:00 -6°C° 0 mm 0 mps 582 mmHg 96%
    23:00 -6°C° 0 mm 0 mps 582 mmHg 95%

    Day after tomorrow, 28 March, Tuesday

    Time Temperature Precipitation Wind Pressure Humidity
    00:00 -6°C° 0 mm 0 mps 582 mmHg 95%
    01:00 -6°C° 0 mm 0 mps 582 mmHg 95%
    02:00 -6°C° 0 mm 0 mps 582 mmHg 95%
    03:00 -6°C° 0 mm 0 mps 582 mmHg 95%
    04:00 -7°C° 0 mm 0 mps 581 mmHg 95%
    05:00 -6°C° 0 mm 1 mps 582 mmHg 92%
    06:00 -4°C° 0 mm 1 mps 582 mmHg 90%
    07:00 -3°C° 0 mm 1 mps 583 mmHg 88%
    08:00 0°C° 0 mm 1 mps 584 mmHg 80%
    09:00 +2°C° 0 mm 1 mps 586 mmHg 73%
    10:00 +4°C° 0 mm 0 mps 587 mmHg 66%
    11:00 +5°C° 0 mm 1 mps 587 mmHg 64%
    12:00 +6°C° 0 mm 1 mps 587 mmHg 62%
    13:00 +7°C° 0 mm 1 mps 588 mmHg 60%
    14:00 +6°C° 0 mm 1 mps 587 mmHg 62%
    15:00 +6°C° 0 mm 1 mps 587 mmHg 64%
    16:00 +6°C° 0 mm 1 mps 587 mmHg 67%
    17:00 +4°C° 0 mm 1 mps 586 mmHg 75%
    18:00 +1°C° 0 mm 1 mps 585 mmHg 83%
    19:00 -1°C° 0 mm 1 mps 584 mmHg 91%
    20:00 -1°C° 0 mm 1 mps 584 mmHg 92%
    21:00 -2°C° 0 mm 1 mps 584 mmHg 92%
    22:00 -2°C° 0 mm 1 mps 584 mmHg 93%
    23:00 -2°C° 0 mm 1 mps 584 mmHg 92%

    29 March, Wednesday

    Time Temperature Precipitation Wind Pressure Humidity
    00:00 -2°C° 0 mm 1 mps 584 mmHg 92%
    01:00 -2°C° 0 mm 1 mps 584 mmHg 91%
    02:00 -3°C° 0 mm 1 mps 584 mmHg 92%
    03:00 -3°C° 0 mm 1 mps 584 mmHg 92%
    04:00 -3°C° 0 mm 1 mps 584 mmHg 92%
    05:00 -2°C° 0 mm 1 mps 585 mmHg 90%
    06:00 -2°C° 0 mm 1 mps 585 mmHg 89%
    07:00 -2°C° 0 mm 1 mps 586 mmHg 87%
    08:00 +1°C° 0 mm 1 mps 586 mmHg 79%
    09:00 +3°C° 0 mm 1 mps 587 mmHg 72%
    10:00 +5°C° 0 mm 1 mps 588 mmHg 64%
    11:00 +6°C° 0 mm 1 mps 589 mmHg 61%
    12:00 +7°C° 0 mm 1 mps 589 mmHg 58%
    13:00 +8°C° 0 mm 1 mps 589 mmHg 55%
    14:00 +8°C° 0 mm 1 mps 589 mmHg 57%
    15:00 +7°C° 0 mm 1 mps 588 mmHg 59%
    16:00 +7°C° 0 mm 1 mps 588 mmHg 61%
    17:00 +5°C° 0 mm 1 mps 587 mmHg 69%
    18:00 +2°C° 0 mm 1 mps 586 mmHg 77%
    19:00 0°C° 0 mm 1 mps 585 mmHg 85%
    20:00 0°C° 0 mm 1 mps 585 mmHg 86%
    21:00 -1°C° 0 mm 1 mps 585 mmHg 87%
    22:00 -1°C° 0 mm 1 mps 586 mmHg 88%
    23:00 -2°C° 0 mm 1 mps 585 mmHg 88%

    30 March, Thursday

    Time Temperature Precipitation Wind Pressure Humidity
    00:00 -2°C° 0 mm 1 mps 585 mmHg 88%
    01:00 -3°C° 0 mm 1 mps 585 mmHg 89%
    02:00 -3°C° 0 mm 1 mps 585 mmHg 88%
    03:00 -3°C° 0 mm 1 mps 584 mmHg 87%
    04:00 -3°C° 0 mm 1 mps 584 mmHg 86%
    05:00 -3°C° 0 mm 1 mps 584 mmHg 82%
    06:00 -2°C° 0 mm 1 mps 585 mmHg 79%
    07:00 -1°C° 0 mm 1 mps 585 mmHg 75%
    08:00 +2°C° 0 mm 1 mps 587 mmHg 68%
    09:00 +4°C° 0 mm 1 mps 588 mmHg 61%
    10:00 +6°C° 0 mm 0 mps 589 mmHg 54%
    11:00 +8°C° 0 mm 1 mps 589 mmHg 52%
    12:00 +8°C° 0 mm 1 mps 590 mmHg 51%
    13:00 +9°C° 0 mm 1 mps 590 mmHg 49%
    14:00 +9°C° 0 mm 1 mps 589 mmHg 52%
    15:00 +9°C° 0 mm 1 mps 589 mmHg 54%
    16:00 +8°C° 0 mm 1 mps 589 mmHg 57%
    17:00 +6°C° 0 mm 1 mps 587 mmHg 67%
    18:00 +3°C° 0 mm 1 mps 586 mmHg 77%
    19:00 0°C° 0 mm 1 mps 584 mmHg 87%
    20:00 0°C° 0 mm 1 mps 585 mmHg 89%
    21:00 0°C° 0 mm 1 mps 585 mmHg 91%
    22:00 0°C° 0 mm 1 mps 585 mmHg 92%
    23:00 -1°C° 0 mm 1 mps 585 mmHg 93%

    31 March, Friday

    Time Temperature Precipitation Wind Pressure Humidity
    00:00 -1°C° 0 mm 1 mps 584 mmHg 94%
    01:00 -1°C° 0 mm 1 mps 584 mmHg 95%
    02:00 -1°C° 0 mm 1 mps 584 mmHg 95%
    03:00 -2°C° 0 mm 1 mps 583 mmHg 95%
    04:00 -2°C° 0 mm 1 mps 583 mmHg 95%
    05:00 -2°C° 0 mm 1 mps 583 mmHg 93%
    06:00 -1°C° 0 mm 1 mps 583 mmHg 91%
    07:00 -1°C° 0 mm 1 mps 583 mmHg 89%
    08:00 +1°C° 0 mm 1 mps 584 mmHg 79%
    09:00 +4°C° 0 mm 1 mps 585 mmHg 69%
    10:00 +5°C° 0 mm 2 mps 586 mmHg 59%
    11:00 +5°C° 0 mm 2 mps 586 mmHg 57%
    12:00 +6°C° 0 mm 2 mps 586 mmHg 55%
    13:00 +7°C° 0 mm 2 mps 586 mmHg 53%
    14:00 +6°C° 0 mm 2 mps 585 mmHg 55%
    15:00 +6°C° 0 mm 2 mps 585 mmHg 58%
    16:00 +6°C° 0 mm 2 mps 584 mmHg 60%
    17:00 +4°C° 0 mm 2 mps 583 mmHg 70%
    18:00 +2°C° 0 mm 2 mps 582 mmHg 80%
    19:00 +1°C° 0 mm 1 mps 581 mmHg 90%
    20:00 0°C° 0 mm 1 mps 581 mmHg 92%
    21:00 0°C° 0 mm 1 mps 581 mmHg 93%
    22:00 0°C° 0 mm 1 mps 581 mmHg 95%
    23:00 -1°C° 0 mm 1 mps 581 mmHg 95%
    Show more